Wind_Speed
23 23 22 21 20 19 19 19 18 17 18 19 19 19 18 18 17 15 11 10 9 8 8 8 7 7 8 8 8 10 11 12 13 16 19 20 21 22 19 16 18 20 19
27 23 21 21 21 19 18 17 17 17 16 15 16 16 16 15 13 12 10 8 7 6 6 6 5 6 7 7 7 7 10 11 13 15 18 22 23 21 20 18 15 17 18
27 24 23 22 22 19 18 17 17 17 15 13 14 14 14 13 12 10 7 5 5 4 2 2 4 7 7 9 9 9 9 11 11 16 18 19 21 19 15 18 14 14 16
29 26 25 22 19 18 18 17 16 15 13 12 12 12 12 11 9 6 5 4 2 1 1 3 6 7 8 8 11 11 10 8 8 12 16 13 16 19 14 16 12 12 13
28 27 25 22 20 17 15 14 14 13 12 11 11 11 10 9 8 7 5 3 2 4 6 8 7 6 8 8 9 9 7 4 5 8 9 21 18 19 16 15 12 14 14
24 26 25 23 21 17 13 13 12 12 12 12 11 10 9 8 7 6 5 4 5 7 7 7 6 5 5 6 6 7 7 2 1 4 1 11 22 17 15 15 14 13 13
22 25 23 21 19 15 13 12 12 12 12 11 11 9 8 8 7 7 6 5 6 6 7 7 6 5 4 4 3 6 7 3 3 7 5 14 22 17 13 14 14 13 14
24 21 22 20 17 13 12 12 12 11 11 10 10 9 8 7 7 6 6 7 6 5 6 5 4 2 2 2 3 5 8 6 1 4 12 10 15 13 14 14 13 12 12
19 23 20 20 15 13 12 12 11 11 10 9 9 9 9 7 7 7 7 7 6 5 5 4 3 2 2 2 3 6 8 8 9 7 13 9 10 11 14 15 12 12 13
18 21 20 19 14 12 11 11 10 10 9 9 9 8 9 8 7 7 6 5 5 4 2 2 2 1 4 5 6 9 11 13 9 10 9 7 7 11 13 15 15 14 14
17 17 22 20 15 12 11 9 8 9 10 10 10 10 10 9 8 5 6 5 4 5 6 6 4 1 4 5 9 10 13 11 9 17 13 14 9 12 14 14 15 14 14
19 18 16 16 13 13 10 5 6 9 11 10 11 10 13 8 6 6 5 3 5 6 6 4 2 2 2 6 9 7 8 13 14 9 10 10 9 10 13 14 13 14 14
23 25 16 11 13 13 11 6 7 12 12 12 13 12 6 7 5 3 7 2 3 4 6 7 9 6 3 5 7 6 8 13 12 13 11 10 8 9 11 11 12 10 11
25 23 19 15 14 13 11 6 9 9 10 11 8 9 12 8 4 2 2 4 4 2 7 8 11 15 15 15 5 9 5 8 11 11 10 6 8 10 10 11 12 8 9
24 21 18 17 19 13 11 6 6 7 9 9 9 11 8 8 5 6 6 4 2 7 10 8 11 9 13 14 12 2 7 14 8 7 10 7 6 7 8 9 9 9 8
24 23 19 15 23 16 13 11 8 10 10 9 9 6 9 7 9 10 12 12 8 6 7 8 7 14 8 12 1 4 5 11 9 7 6 6 5 5 5 6 9 10 9
26 21 21 18 19 20 16 14 10 10 9 10 11 11 7 9 12 7 10 7 5 8 3 4 8 14 13 14 16 5 3 5 5 2 2 4 6 4 5 4 6 8 9
28 24 26 24 22 21 19 14 13 11 10 7 9 8 11 13 12 14 9 7 7 4 5 9 10 10 12 10 18 5 1 3 8 4 6 2 3 2 4 4 4 6 8
31 27 28 26 25 20 22 16 15 15 11 13 10 10 10 14 13 16 12 6 5 7 6 2 3 10 14 12 12 9 8 2 5 6 6 8 5 3 1 3 5 5 5
35 28 26 30 25 22 18 18 18 13 10 12 13 9 8 10 13 17 11 4 4 5 6 4 5 7 12 12 10 2 14 10 5 2 6 7 8 8 1 1 4 4 4
34 31 29 29 28 25 22 21 20 20 16 15 14 18 14 11 7 16 8 5 6 3 3 4 7 8 5 11 6 8 7 13 9 9 11 7 6 7 6 0 2 1 2
35 32 31 31 32 29 26 23 19 20 18 17 15 14 13 12 10 15 12 8 8 2 0 3 7 4 3 7 10 8 5 8 5 3 9 11 3 5 6 4 2 2 2
37 34 34 34 33 30 27 23 21 20 21 20 19 18 16 16 12 13 15 12 6 2 5 2 2 3 4 6 10 4 4 5 6 5 1 3 4 2 7 10 5 5 2
39 36 33 37 37 33 29 26 24 24 26 25 24 20 21 18 15 16 20 16 13 7 8 5 4 5 4 4 2 3 2 3 4 4 7 1 4 9 4 6 6 1 3
37 35 30 37 37 34 32 30 27 24 26 24 22 21 23 21 19 15 23 21 16 16 8 9 8 6 7 3 2 5 3 9 6 7 11 10 9 9 0 7 5 2 2
36 34 33 34 37 35 33 30 29 29 26 24 24 22 22 21 21 19 13 19 21 17 13 13 14 12 12 8 7 6 3 6 8 12 11 9 15 13 4 3 2 8 5
Wind_Direction
159 153 151 144 138 135 127 124 126 132 131 131 137 143 147 146 143 144 144 133 118 102 97 93 101 115 113 111 111 114 118 117 115 119 121 123 122 119 112 113 120 121 119
156 154 152 144 138 137 134 134 127 126 132 137 136 143 153 159 155 148 138 128 111 99 97 76 86 106 112 107 105 122 122 121 120 123 130 133 132 130 134 129 132 127 126
157 154 148 143 137 134 131 132 140 130 128 131 138 139 145 147 145 143 138 130 111 98 84 85 111 108 109 102 101 112 122 127 143 146 143 143 139 142 142 133 141 140 136
154 153 147 143 139 135 132 131 136 135 136 133 140 149 153 157 157 153 143 133 121 78 86 131 132 126 122 96 107 107 104 117 157 155 149 143 153 149 152 144 141 149 143
153 151 146 143 139 135 133 135 138 137 141 142 143 148 159 162 157 151 152 154 167 124 108 119 127 123 118 96 111 98 105 172 190 173 201 218 199 162 155 157 160 162 154
153 151 147 145 142 134 140 140 138 137 144 145 140 148 156 159 161 171 179 173 149 135 118 117 123 117 103 81 90 110 110 143 149 188 178 158 175 178 162 164 167 170 162
149 152 146 145 143 138 139 139 140 139 146 145 139 140 147 158 171 179 173 170 144 132 123 117 116 112 111 102 95 107 123 150 118 149 134 161 190 187 186 175 181 183 173
147 154 147 148 145 140 139 142 141 145 145 145 143 140 146 146 153 166 160 150 136 133 123 117 106 88 89 114 116 122 154 129 251 112 142 129 166 178 182 187 190 188 186
157 157 156 156 151 147 150 147 148 148 144 149 141 142 141 139 145 151 146 140 144 144 133 122 90 65 55 69 96 108 146 138 164 162 149 171 157 180 190 193 203 201 199
156 166 165 162 150 154 153 154 156 149 150 145 139 137 133 131 131 130 131 138 141 122 96 69 52 48 100 101 113 146 150 154 158 183 177 178 200 198 198 201 197 196 194
143 156 165 161 163 164 158 158 168 159 152 148 138 138 133 125 120 115 125 122 92 84 87 97 106 139 135 146 145 144 156 171 113 158 187 188 215 197 195 195 192 186 183
155 146 158 161 165 164 154 156 172 167 148 140 137 148 155 134 113 105 35 101 108 103 72 39 338 102 168 183 119 126 167 196 190 144 182 186 205 193 189 188 191 191 184
154 153 169 170 177 171 137 110 161 148 143 142 141 137 132 144 115 87 54 45 122 89 14 338 300 315 297 219 166 156 188 204 211 171 180 183 197 191 192 186 184 192 192
170 170 176 168 167 162 153 135 140 129 132 132 145 160 142 147 179 271 316 20 12 24 320 301 317 312 290 314 315 241 140 210 179 165 167 190 202 202 194 194 195 198 196
181 183 181 182 165 166 197 165 157 169 169 153 136 185 183 171 192 254 282 265 310 304 310 296 302 319 321 316 297 8 153 162 167 158 168 185 192 209 207 200 201 201 202
188 186 184 184 173 177 190 182 174 183 174 166 154 177 167 174 181 230 229 217 222 257 3 306 338 334 45 5 25 253 201 157 139 109 130 179 192 199 202 209 208 205 202
190 188 191 185 177 183 184 182 183 188 188 180 152 180 173 200 183 217 212 172 252 304 274 324 338 347 3 30 16 101 80 121 123 105 143 173 115 159 178 180 212 213 212
189 185 189 198 189 187 206 208 193 192 195 227 190 197 211 223 197 194 214 245 285 284 347 330 330 357 21 26 2 45 221 82 133 134 215 329 178 154 130 158 169 194 204
186 188 190 203 196 198 202 205 212 190 224 180 206 219 240 236 222 190 214 245 203 263 275 293 51 11 3 355 359 6 1 208 78 140 224 241 209 226 67 80 167 162 169
192 191 191 193 199 206 207 205 186 195 198 197 206 220 232 215 218 197 247 223 183 248 274 31 354 341 11 8 17 46 57 129 150 198 227 207 199 196 165 136 130 134 126
190 195 195 192 202 206 204 203 198 199 203 215 211 221 248 234 223 208 242 246 236 253 275 243 316 320 11 31 2 343 76 97 79 119 134 155 155 208 202 327 359 21 113
199 200 196 198 206 214 215 220 212 200 217 219 216 222 230 233 242 216 231 233 246 69 217 294 311 327 356 22 6 357 46 97 26 233 176 212 78 190 197 244 150 354 327
196 197 197 201 206 213 222 223 222 219 223 216 213 226 221 225 240 232 229 227 224 345 224 277 254 354 330 27 31 6 25 12 36 55 118 250 200 195 238 237 60 230 186
199 197 201 204 209 216 220 218 219 220 216 215 212 222 231 237 237 235 225 223 233 239 243 225 259 282 292 334 62 88 338 350 3 18 7 164 312 288 243 238 238 224 165
199 202 206 208 213 217 218 223 218 224 221 215 220 223 225 234 241 237 233 224 231 229 222 230 237 246 255 249 340 351 38 45 45 343 4 5 357 349 212 265 242 252 221
204 209 207 208 213 217 221 228 225 222 217 215 218 220 226 230 235 239 238 229 223 235 232 236 244 257 231 230 273 271 306 356 357 6 356 3 5 29 2 77 199 210 316
Height
1551 1551 1552 1553 1555 1557 1558 1559 1560 1561 1562 1564 1566 1567 1568 1570 1571 1573 1575 1576 1577 1579 1580 1580 1581 1581 1582 1584 1585 1586 1587 1587 1587 1588 1589 1591 1593 1593 1594 1596 1598 1599 1599
1548 1551 1553 1554 1555 1557 1559 1560 1561 1562 1563 1564 1566 1567 1569 1570 1572 1574 1576 1577 1579 1580 1581 1582 1582 1583 1583 1584 1585 1586 1586 1587 1588 1588 1588 1590 1592 1594 1593 1596 1598 1600 1601
1547 1551 1553 1554 1556 1558 1560 1561 1562 1563 1564 1565 1567 1568 1570 1572 1573 1576 1577 1579 1580 1581 1582 1582 1582 1583 1584 1585 1586 1586 1586 1588 1587 1587 1587 1588 1590 1594 1596 1597 1600 1601 1601
1546 1550 1553 1555 1556 1559 1560 1561 1563 1564 1565 1566 1568 1570 1572 1573 1575 1577 1578 1579 1580 1581 1581 1582 1582 1583 1584 1586 1587 1587 1588 1587 1588 1589 1588 1589 1592 1593 1597 1597 1600 1601 1602
1546 1550 1553 1555 1557 1560 1562 1562 1563 1564 1565 1566 1568 1571 1572 1574 1576 1578 1578 1579 1579 1580 1581 1582 1583 1584 1585 1586 1587 1588 1588 1586 1587 1588 1589 1589 1591 1593 1596 1597 1600 1601 1602
1547 1550 1553 1555 1557 1560 1563 1563 1564 1565 1566 1567 1569 1571 1573 1575 1576 1577 1578 1579 1580 1581 1582 1584 1584 1584 1586 1587 1587 1587 1588 1585 1585 1586 1586 1584 1590 1593 1595 1597 1600 1601 1602
1548 1551 1554 1556 1559 1560 1563 1564 1565 1566 1567 1568 1570 1572 1574 1576 1576 1576 1578 1579 1581 1582 1582 1583 1584 1585 1586 1587 1587 1588 1586 1584 1584 1585 1585 1586 1590 1593 1595 1596 1599 1601 1601
1547 1551 1554 1557 1559 1561 1562 1564 1565 1566 1568 1569 1570 1573 1575 1576 1576 1577 1579 1581 1582 1582 1583 1584 1585 1585 1586 1586 1586 1585 1585 1586 1585 1585 1586 1587 1589 1591 1593 1596 1598 1599 1600
1548 1552 1554 1556 1559 1561 1563 1565 1566 1567 1568 1570 1571 1574 1576 1577 1577 1579 1580 1581 1581 1582 1584 1585 1585 1585 1585 1585 1586 1586 1585 1586 1586 1587 1588 1590 1590 1591 1593 1595 1596 1597 1599
1549 1552 1554 1557 1560 1562 1563 1565 1566 1567 1569 1570 1573 1575 1577 1578 1579 1580 1580 1580 1580 1584 1586 1588 1588 1587 1586 1586 1584 1584 1585 1585 1585 1588 1589 1590 1593 1593 1593 1595 1596 1597 1598
1550 1552 1554 1557 1560 1562 1563 1565 1567 1568 1569 1571 1573 1576 1578 1579 1580 1581 1581 1582 1585 1587 1587 1588 1587 1587 1586 1585 1583 1584 1584 1583 1582 1586 1588 1590 1592 1592 1593 1595 1596 1595 1596
1550 1553 1555 1558 1560 1561 1563 1566 1566 1568 1569 1572 1574 1576 1578 1579 1580 1581 1583 1585 1587 1589 1588 1587 1584 1582 1582 1583 1587 1586 1587 1584 1583 1583 1585 1587 1590 1591 1592 1593 1593 1593 1593
1550 1553 1555 1558 1559 1561 1563 1565 1567 1568 1569 1572 1575 1577 1579 1581 1580 1582 1585 1587 1588 1590 1586 1586 1583 1586 1586 1583 1585 1587 1587 1587 1585 1582 1584 1586 1589 1591 1591 1591 1591 1591 1591
1549 1552 1555 1557 1559 1561 1563 1566 1568 1569 1570 1573 1576 1578 1579 1581 1582 1582 1586 1588 1591 1591 1589 1586 1586 1583 1578 1583 1579 1581 1587 1586 1584 1582 1583 1586 1588 1590 1590 1590 1590 1589 1590
1547 1551 1554 1557 1560 1560 1562 1566 1568 1569 1571 1574 1576 1578 1580 1581 1583 1583 1586 1589 1592 1591 1590 1589 1583 1582 1585 1587 1587 1580 1581 1584 1584 1583 1582 1586 1588 1589 1589 1588 1589 1589 1590
1543 1548 1552 1556 1559 1561 1562 1566 1568 1570 1572 1574 1576 1578 1580 1582 1583 1583 1585 1589 1593 1596 1590 1589 1580 1579 1578 1584 1586 1585 1585 1584 1583 1584 1583 1586 1587 1588 1587 1587 1588 1588 1589
1541 1546 1550 1555 1559 1560 1562 1565 1568 1570 1572 1574 1575 1578 1579 1582 1583 1583 1584 1587 1592 1592 1593 1590 1586 1582 1580 1582 1583 1588 1583 1583 1579 1583 1587 1587 1586 1587 1586 1586 1586 1586 1587
1539 1544 1548 1552 1556 1560 1561 1564 1568 1569 1571 1573 1575 1577 1578 1581 1582 1583 1583 1586 1588 1591 1590 1588 1587 1585 1584 1582 1579 1582 1580 1581 1580 1583 1587 1589 1589 1589 1586 1584 1584 1585 1585
1537 1542 1547 1550 1553 1557 1561 1563 1566 1569 1570 1573 1574 1576 1578 1578 1582 1582 1583 1585 1587 1589 1589 1589 1589 1588 1585 1582 1579 1579 1583 1585 1584 1580 1585 1587 1589 1589 1587 1585 1585 1585 1585
1536 1540 1545 1549 1551 1555 1558 1561 1564 1567 1569 1571 1574 1574 1576 1578 1581 1582 1583 1585 1587 1588 1589 1589 1588 1589 1587 1584 1580 1579 1582 1583 1579 1586 1584 1585 1585 1587 1587 1587 1586 1586 1585
1532 1537 1542 1545 1548 1552 1554 1557 1561 1564 1567 1570 1572 1573 1575 1577 1579 1581 1582 1584 1586 1587 1588 1588 1588 1587 1587 1585 1585 1581 1582 1585 1585 1583 1583 1584 1583 1585 1585 1589 1588 1587 1586
1527 1532 1538 1541 1545 1548 1550 1554 1558 1562 1565 1567 1569 1571 1573 1575 1578 1579 1580 1582 1584 1586 1587 1588 1587 1586 1588 1586 1584 1582 1582 1585 1584 1583 1584 1583 1583 1584 1586 1587 1585 1586 1588
1522 1527 1533 1537 1541 1544 1547 1552 1555 1559 1562 1564 1565 1567 1570 1573 1576 1578 1578 1579 1582 1584 1585 1586 1586 1587 1587 1587 1584 1584 1584 1585 1583 1585 1584 1583 1583 1582 1585 1584 1584 1582 1584
1515 1522 1528 1532 1536 1540 1544 1548 1551 1554 1556 1559 1561 1564 1566 1569 1572 1574 1576 1578 1581 1583 1583 1584 1585 1585 1585 1586 1585 1585 1586 1587 1586 1585 1583 1582 1582 1582 1583 1583 1581 1580 1581
1511 1517 1523 1527 1532 1537 1540 1544 1548 1550 1553 1556 1559 1561 1562 1564 1566 1569 1572 1575 1579 1581 1583 1584 1585 1585 1585 1586 1587 1586 1585 1585 1585 1586 1584 1583 1583 1581 1581 1582 1580 1580 1579
1508 1513 1519 1523 1527 1531 1535 1539 1542 1545 1549 1552 1555 1556 1558 1560 1562 1564 1567 1571 1575 1577 1580 1582 1583 1584 1585 1585 1586 1586 1586 1584 1584 1584 1585 1583 1583 1582 1582 1582 1578 1580 1580